• Join FlightAware (Why Join?)
  • Login
  • US Flag 
11:05PM EST


 

Airport Tracker/Info


-or-


 

Live Flight TrackerFlight Track Log ✈ DAL1288 ✈ 01-Mar-2014 ✈ KFLL - KATL

Flight Track Log - Related Links

Times and Time Zones

All times are in EST time to prevent confusion due to time zone crossing. See the DAL1288 flight status page for this flight to view local times or setup timezone preferences in your user account.

Time Position Orientation Groundspeed Altitude Reporting Facility
EST Latitude Longitude Course Direction KTS MPH feet Rate Location/Type
04:54PM 26.0750 -80.1389 335° Northwest 164 189 900  Level Miami Center
04:56PM 26.1014 -80.0725 66° East 229 264 3,200 2,175 Climbing Miami Center
04:56PM 26.1075 -80.0750 340° North 247 284 3,800 3,288 Climbing Miami Center
04:57PM 26.3744 -80.3104 335° Northwest  Level Estimated
04:57PM 26.1714 -80.1186 329° Northwest 268 308 7,200  Level Miami Center
04:58PM 26.4750 -80.3632 335° Northwest  Level Estimated
04:58PM 26.2228 -80.1522 330° Northwest 271 312 10,100  Level Miami Center
04:58PM 26.2392 -80.1689 318° Northwest 265 305 11,200 2,200 Climbing Miami Center
04:59PM 26.5756 -80.4160 335° Northwest  Level Estimated
04:59PM 26.2783 -80.1956 329° Northwest 292 336 12,300  Level Miami Center
05:00PM 26.6761 -80.4689 335° Northwest  Level Estimated
05:00PM 26.3603 -80.2581 326° Northwest 320 368 14,800  Level Miami Center
05:01PM 26.4408 -80.3000 335° Northwest 337 388 16,800 2,100 Climbing Miami Center
05:02PM 26.5442 -80.3539 335° Northwest 363 418 19,000 2,650 Climbing Miami Center
05:03PM 26.6308 -80.3961 336° Northwest 374 430 22,100 2,500 Climbing Miami Center
05:04PM 26.7358 -80.4481 336° Northwest 374 430 24,000 1,818 Climbing Miami Center
05:05PM 26.8556 -80.5053 337° Northwest 379 436 26,100 1,591 Climbing Miami Center
05:06PM 26.9589 -80.5550 337° Northwest 384 442 27,500 1,050 Climbing Miami Center
05:07PM 27.0639 -80.6075 336° Northwest 401 461 28,200 1,100 Climbing Miami Center
05:08PM 27.1753 -80.6600 337° Northwest 417 480 29,700 1,550 Climbing Miami Center
05:09PM 27.2867 -80.7150 336° Northwest 428 493 31,300 1,550 Climbing Miami Center
05:10PM 27.3981 -80.7681 337° Northwest 434 499 32,800 850 Climbing Miami Center
05:11PM 27.5031 -80.8206 336° Northwest 429 494 33,000 364 Climbing Miami Center
05:12PM 27.6347 -80.8861 336° Northwest 429 494 33,600 955 Climbing Miami Center
05:13PM 27.7503 -80.9394 338° Northwest 429 494 35,100 1,000 Climbing Miami Center
05:14PM 27.8592 -80.9928 337° Northwest 429 494 35,600 -150 Climbing Miami Center
05:15PM 27.9661 -81.0458 336° Northwest 429 494 34,800 -750 Descending Miami Center
05:16PM 28.0772 -81.0994 337° Northwest 423 487 34,100 -750 Descending Miami Center
05:17PM 28.1883 -81.1600 334° Northwest 436 502 33,300 -333 Descending Miami Center
05:19PM 28.4403 -81.2872 336° Northwest 436 502 33,000 -91 Descending Jacksonville Center
05:20PM 28.5475 -81.3400 337° Northwest 425 489 33,000  Level Jacksonville Center
05:21PM 28.6647 -81.3783 344° North 425 489 33,000  Level Jacksonville Center
05:22PM 28.7800 -81.4122 346° North 425 489 33,000  Level Jacksonville Center
05:23PM 28.8972 -81.4506 344° North 425 489 33,000  Level Jacksonville Center
05:24PM 29.0125 -81.4894 344° North 425 489 33,000  Level Jacksonville Center
05:25PM 29.1278 -81.5281 344° North 425 489 33,000  Level Jacksonville Center
05:26PM 29.2431 -81.5694 343° North 425 489 33,000  Level Jacksonville Center
05:27PM 29.3581 -81.6036 345° North 425 489 33,000  Level Jacksonville Center
05:28PM 29.4794 -81.6186 354° North 425 489 33,000  Level Jacksonville Center
05:29PM 29.6028 -81.6361 353° North 431 496 33,000  Level Jacksonville Center
05:30PM 29.7281 -81.6536 353° North 441 507 33,000  Level Jacksonville Center
05:31PM 29.8514 -81.6689 354° North 446 513 33,000  Level Jacksonville Center
05:32PM 29.9747 -81.6842 354° North 446 513 33,000  Level Jacksonville Center
05:33PM 30.0981 -81.7017 353° North 446 513 33,000  Level Jacksonville Center
05:34PM 30.2172 -81.7147 355° North 446 513 33,000  Level Jacksonville Center
05:35PM 30.3406 -81.7300 354° North 446 513 33,000  Level Jacksonville Center
05:36PM 30.4619 -81.7478 353° North 446 513 33,000  Level Jacksonville Center
05:37PM 30.5725 -81.7658 352° North 444 511 33,000  Level Jacksonville Center
05:38PM 30.6939 -81.7836 353° North 444 511 33,000  Level Jacksonville Center
05:39PM 30.8153 -81.8042 352° North 444 511 33,000  Level Jacksonville Center
05:40PM 30.9219 -81.8511 339° North 425 489 33,000  Level Jacksonville Center
05:41PM 31.0247 -81.9131 333° Northwest 418 481 33,000  Level Jacksonville Center
05:42PM 31.1297 -81.9753 333° Northwest 413 475 33,000  Level Jacksonville Center
05:43PM 31.2303 -82.0372 332° Northwest 413 475 33,000  Level Jacksonville Center
05:44PM 31.3353 -82.0972 334° Northwest 413 475 33,000  Level Jacksonville Center
05:45PM 31.4400 -82.1597 333° Northwest 413 475 33,000  Level Jacksonville Center
05:46PM 31.5447 -82.2172 335° Northwest 413 475 33,000  Level Jacksonville Center
05:49PM 31.8000 -82.3700 333° Northwest 410 472 33,000  Level Atlanta Center
05:50PM 31.9053 -82.4317 334° Northwest 410 472 33,000  Level Atlanta Center
05:51PM 31.9981 -82.5083 325° Northwest 415 478 33,000  Level Atlanta Center
05:52PM 32.0806 -82.5975 318° Northwest 410 472 33,000 -150 Level Atlanta Center
05:53PM 32.1650 -82.6844 319° Northwest 405 466 32,700 -650 Descending Atlanta Center
05:54PM 32.2494 -82.7717 319° Northwest 395 455 31,700 -1,100 Descending Atlanta Center
05:55PM 32.3336 -82.8614 318° Northwest 395 455 30,500 -1,400 Descending Atlanta Center
05:56PM 32.4158 -82.9489 318° Northwest 395 455 28,900 -1,900 Descending Atlanta Center
05:57PM 32.4981 -83.0364 318° Northwest 395 455 26,700 -1,850 Descending Atlanta Center
05:58PM 32.5822 -83.1292 317° Northwest 400 460 25,200 -1,550 Descending Atlanta Center
05:59PM 32.6664 -83.2197 318° Northwest 400 460 23,600 -1,650 Descending Atlanta Center
06:00PM 32.7506 -83.3078 319° Northwest 400 460 21,900 -1,700 Descending Atlanta Center
06:01PM 32.8281 -83.3911 318° Northwest 395 455 20,200 -1,700 Descending Atlanta Center
06:02PM 32.9081 -83.4772 318° Northwest 390 449 18,500 -1,600 Descending Atlanta Center
06:03PM 32.9833 -83.5608 317° Northwest 379 436 17,000 -1,600 Descending Atlanta Center
06:04PM 33.0608 -83.6422 319° Northwest 371 427 15,300 -1,300 Descending Atlanta Center
06:05PM 33.1281 -83.7164 317° Northwest 371 427 14,400 -650 Descending Atlanta Center
06:06PM 33.2033 -83.7956 319° Northwest 371 427 14,000 -550 Descending Atlanta Center
06:07PM 33.2681 -83.8872 310° West 366 421 13,300 -850 Descending Atlanta Center
06:08PM 33.3267 -83.9767 308° West 352 405 12,300 -650 Descending Atlanta Center
06:09PM 33.3894 -84.0686 309° West 352 405 12,000 -189 Descending Atlanta Center
06:09PM 33.4333 -84.1333 309° West 349 402 12,000  Level Atlanta TRACON
06:10PM 33.5000 -84.2167 314° West 306 352 12,000 -95 Level Atlanta TRACON
06:11PM 33.5333 -84.3000 296° West 267 307 11,800 -1,286 Descending Atlanta TRACON
06:12PM 33.5333 -84.4000 270° West 283 326 9,300 -2,350 Descending Atlanta TRACON
06:13PM 33.5333 -84.4833 270° West 272 313 7,100 -2,316 Descending Atlanta TRACON
06:14PM 33.5333 -84.5667 270° West 253 291 4,900 -2,050 Descending Atlanta TRACON
06:15PM 33.5500 -84.6500 284° West 261 300 3,000 -950 Descending Atlanta TRACON
06:16PM 33.6000 -84.6333 16° North 207 238 3,000  Level Atlanta TRACON
06:17PM 33.6167 -84.5833 68° East 193 222 3,000 -400 Level Atlanta TRACON
06:18PM 33.6167 -84.5167 90° East 164 189 2,200 -773 Descending Atlanta TRACON
06:19PM 33.6167 -84.4667 90° East 146 168 1,300 -818 Descending Atlanta TRACON